TimeCDT,TemperatureF,Dew PointF,Humidity,Sea Level PressureIn,VisibilityMPH,Wind Direction,Wind SpeedMPH,Gust SpeedMPH,PrecipitationIn,Events,Conditions,WindDirDegrees,DateUTC
12:15 AM,32.0,32.0,100,30.14,10.0,Calm,Calm,-,N/A,,Clear,0,2013-04-27 05:15:00
12:35 AM,32.0,32.0,100,30.14,10.0,Calm,Calm,-,N/A,,Clear,0,2013-04-27 05:35:00
12:55 AM,32.0,32.0,100,30.14,10.0,Calm,Calm,-,N/A,,Clear,0,2013-04-27 05:55:00
1:15 AM,32.0,30.2,93,30.14,10.0,Calm,Calm,-,N/A,,Clear,0,2013-04-27 06:15:00
1:35 AM,32.0,32.0,100,30.14,10.0,Calm,Calm,-,N/A,,Clear,0,2013-04-27 06:35:00
1:55 AM,32.0,32.0,100,30.14,7.0,Calm,Calm,-,N/A,,Clear,0,2013-04-27 06:55:00
2:15 AM,32.0,32.0,100,30.14,10.0,Calm,Calm,-,N/A,,Clear,0,2013-04-27 07:15:00
2:35 AM,30.2,30.2,100,30.13,7.0,Calm,Calm,-,N/A,,Clear,0,2013-04-27 07:35:00
2:55 AM,30.2,30.2,100,30.13,10.0,Calm,Calm,-,N/A,,Clear,0,2013-04-27 07:55:00
3:15 AM,30.2,30.2,100,30.13,10.0,Calm,Calm,-,N/A,,Clear,0,2013-04-27 08:15:00
3:35 AM,32.0,30.2,93,30.12,10.0,Calm,Calm,-,N/A,,Clear,0,2013-04-27 08:35:00
3:55 AM,30.2,30.2,100,30.12,10.0,Calm,Calm,-,N/A,,Clear,0,2013-04-27 08:55:00
4:15 AM,30.2,30.2,100,30.12,10.0,Calm,Calm,-,N/A,,Clear,0,2013-04-27 09:15:00
4:35 AM,30.2,30.2,100,30.13,10.0,Calm,Calm,-,N/A,,Clear,0,2013-04-27 09:35:00
4:55 AM,30.2,30.2,100,30.13,10.0,Calm,Calm,-,N/A,,Clear,0,2013-04-27 09:55:00
5:15 AM,30.2,30.2,100,30.13,10.0,Calm,Calm,-,N/A,,Clear,0,2013-04-27 10:15:00
6:15 AM,30.2,30.2,100,30.13,7.0,Calm,Calm,-,N/A,,Clear,0,2013-04-27 11:15:00
6:55 AM,32.0,32.0,100,30.13,10.0,Calm,Calm,-,N/A,,Clear,0,2013-04-27 11:55:00
7:15 AM,32.0,32.0,100,30.13,10.0,Calm,Calm,-,N/A,,Clear,0,2013-04-27 12:15:00
7:55 AM,37.4,35.6,93,30.13,10.0,Calm,Calm,-,N/A,,Clear,0,2013-04-27 12:55:00
8:15 AM,42.8,35.6,76,30.13,10.0,Calm,Calm,-,N/A,,Clear,0,2013-04-27 13:15:00
8:35 AM,46.4,37.4,71,30.13,10.0,Calm,Calm,-,N/A,,Clear,0,2013-04-27 13:35:00
8:55 AM,50.0,39.2,66,30.13,10.0,WSW,3.5,-,N/A,,Clear,240,2013-04-27 13:55:00
9:15 AM,51.8,41.0,67,30.13,10.0,SW,3.5,-,N/A,,Clear,230,2013-04-27 14:15:00
9:55 AM,55.4,41.0,58,30.12,10.0,Calm,Calm,-,N/A,,Clear,0,2013-04-27 14:55:00
10:15 AM,57.2,41.0,55,30.12,10.0,Calm,Calm,-,N/A,,Clear,0,2013-04-27 15:15:00
10:35 AM,59.0,41.0,51,30.12,10.0,WSW,3.5,-,N/A,,Clear,240,2013-04-27 15:35:00
10:55 AM,60.8,41.0,48,30.11,10.0,WSW,3.5,-,N/A,,Clear,240,2013-04-27 15:55:00
11:15 AM,60.8,35.6,39,30.11,10.0,SSW,3.5,-,N/A,,Clear,210,2013-04-27 16:15:00
11:35 AM,62.6,33.8,34,30.10,10.0,WSW,5.8,-,N/A,,Clear,240,2013-04-27 16:35:00
11:55 AM,62.6,33.8,34,30.10,10.0,SSW,3.5,-,N/A,,Clear,210,2013-04-27 16:55:00
12:15 PM,62.6,33.8,34,30.10,10.0,SW,6.9,-,N/A,,Clear,220,2013-04-27 17:15:00
12:35 PM,62.6,33.8,34,30.09,10.0,Calm,Calm,-,N/A,,Clear,0,2013-04-27 17:35:00
12:55 PM,64.4,35.6,34,30.08,10.0,WSW,8.1,-,N/A,,Mostly Cloudy,240,2013-04-27 17:55:00
1:15 PM,64.4,33.8,32,30.07,10.0,SW,8.1,-,N/A,,Mostly Cloudy,220,2013-04-27 18:15:00
1:35 PM,64.4,33.8,32,30.07,10.0,WSW,10.4,-,N/A,,Scattered Clouds,240,2013-04-27 18:35:00
1:55 PM,64.4,35.6,34,30.06,10.0,WSW,8.1,-,N/A,,Scattered Clouds,240,2013-04-27 18:55:00
2:15 PM,62.6,35.6,37,30.06,10.0,WSW,6.9,-,N/A,,Scattered Clouds,240,2013-04-27 19:15:00
2:35 PM,64.4,33.8,32,30.05,10.0,SW,12.7,17.3,N/A,,Mostly Cloudy,220,2013-04-27 19:35:00
2:55 PM,64.4,33.8,32,30.04,10.0,SSW,8.1,-,N/A,,Mostly Cloudy,200,2013-04-27 19:55:00
3:15 PM,64.4,35.6,34,30.04,10.0,WSW,12.7,-,N/A,,Mostly Cloudy,240,2013-04-27 20:15:00
3:35 PM,62.6,35.6,37,30.03,10.0,WSW,12.7,-,N/A,,Scattered Clouds,240,2013-04-27 20:35:00
3:55 PM,64.4,33.8,32,30.02,10.0,SW,11.5,-,N/A,,Mostly Cloudy,230,2013-04-27 20:55:00
4:15 PM,64.4,33.8,32,30.02,10.0,WSW,5.8,-,N/A,,Mostly Cloudy,240,2013-04-27 21:15:00
4:35 PM,66.2,32.0,28,30.01,10.0,SW,9.2,17.3,N/A,,Mostly Cloudy,230,2013-04-27 21:35:00
4:55 PM,66.2,32.0,28,30.01,10.0,WSW,12.7,-,N/A,,Scattered Clouds,240,2013-04-27 21:55:00
5:15 PM,64.4,32.0,30,30.01,10.0,SW,13.8,18.4,N/A,,Scattered Clouds,230,2013-04-27 22:15:00
5:55 PM,64.4,33.8,32,30.00,10.0,WSW,9.2,-,N/A,,Scattered Clouds,250,2013-04-27 22:55:00
6:15 PM,64.4,33.8,32,29.99,10.0,WSW,11.5,-,N/A,,Clear,240,2013-04-27 23:15:00
6:35 PM,60.8,35.6,39,29.99,10.0,WSW,6.9,-,N/A,,Clear,240,2013-04-27 23:35:00
6:55 PM,59.0,35.6,42,29.99,10.0,WSW,4.6,-,N/A,,Scattered Clouds,240,2013-04-27 23:55:00
7:15 PM,59.0,35.6,42,29.99,10.0,SW,3.5,-,N/A,,Mostly Cloudy,220,2013-04-28 00:15:00
7:35 PM,60.8,35.6,39,29.99,10.0,South,3.5,-,N/A,,Overcast,190,2013-04-28 00:35:00
7:55 PM,59.0,35.6,42,29.98,10.0,South,3.5,-,N/A,,Mostly Cloudy,190,2013-04-28 00:55:00
8:15 PM,51.8,37.4,58,29.99,10.0,South,3.5,-,N/A,,Clear,190,2013-04-28 01:15:00
8:35 PM,48.2,35.6,62,29.99,10.0,Calm,Calm,-,N/A,,Clear,0,2013-04-28 01:35:00
8:55 PM,46.4,35.6,66,29.98,10.0,South,3.5,-,N/A,,Clear,170,2013-04-28 01:55:00
9:15 PM,50.0,37.4,62,29.98,10.0,SSE,4.6,-,N/A,,Clear,160,2013-04-28 02:15:00
9:35 PM,50.0,37.4,62,29.98,10.0,SSE,5.8,-,N/A,,Clear,160,2013-04-28 02:35:00
9:55 PM,51.8,41.0,67,29.98,10.0,South,4.6,-,N/A,,Clear,170,2013-04-28 02:55:00
10:15 PM,51.8,41.0,67,29.98,10.0,South,3.5,-,N/A,,Scattered Clouds,170,2013-04-28 03:15:00
10:35 PM,51.8,41.0,67,29.98,10.0,South,4.6,-,N/A,,Scattered Clouds,170,2013-04-28 03:35:00
10:55 PM,51.8,41.0,67,29.97,10.0,South,5.8,-,N/A,,Mostly Cloudy,180,2013-04-28 03:55:00
11:15 PM,50.0,41.0,71,29.98,10.0,South,4.6,-,N/A,,Mostly Cloudy,180,2013-04-28 04:15:00
11:55 PM,50.0,41.0,71,29.97,10.0,South,4.6,-,N/A,,Scattered Clouds,190,2013-04-28 04:55:00